[[{"header":{"parameterUnit":"m.s-1","parameterCategory":1,"la1":30.2991,"la2":30.254,"lo1":-89.0895,"lo2":-89.0444,"dy":0.0017,"dx":0.0017,"nx":28,"ny":28,"refTime":"2025-11-05T09:00:00:Z","depth":0,"parameterNumber":2,"parameterNumberName":"U-component_of_WINDS"},"data":[0,0,0,0,0,0,0,0,0,0,0,0,0,0,0,0,0,0,0,0,0,0,0,0,0,0,0,0,0,0,0,0,0,0,0,0,0,0,0,0,0,0,0,0,0,0,0,0,0,0,0,0,0,0,0,0,0,0,-1.6896,-1.6896,0,-1.6912,-1.6912,-1.6912,-1.6876,-1.6875,-1.6873,-1.6872,-1.6889,-1.689,-1.6892,0,0,0,0,0,0,0,0,0,0,0,0,0,-1.6834,-1.6836,-1.6896,-1.6896,-1.6897,-1.6912,-1.6912,-1.6912,-1.6876,-1.6874,-1.6873,-1.6872,-1.6888,-1.689,-1.6892,0,0,0,0,0,0,0,0,0,0,0,0,0,-1.6857,-1.6836,-1.6896,-1.688,-1.6879,-1.6912,-1.6912,-1.6913,-1.6876,-1.6874,-1.6873,-1.6871,-1.6888,-1.689,-1.6892,-1.6941,0,0,-1.6899,-1.69,0,0,0,0,0,0,0,0,-1.6856,-1.6859,-1.6882,-1.6881,-1.688,-1.689,-1.6896,-1.6922,-1.6877,-1.6877,-1.6872,-1.687,-1.6891,-1.6892,-1.6899,-1.6942,-1.6943,-1.6899,-1.6901,-1.6902,-1.6902,0,0,0,0,0,0,0,-1.6854,-1.6858,-1.6902,-1.6883,-1.6881,-1.6872,-1.6873,-1.6901,-1.6894,-1.6877,-1.6874,-1.6877,-1.689,-1.6897,-1.6899,-1.6943,-1.6899,-1.6901,-1.6903,-1.6903,-1.7027,-1.7028,0,0,0,0,0,0,-1.6854,-1.6857,-1.6902,-1.6903,-1.6863,-1.6875,-1.6876,-1.6889,-1.6893,-1.6892,-1.6878,-1.6875,-1.6894,-1.6897,-1.69,-1.6957,-1.6902,-1.6904,-1.6905,-1.7025,-1.7027,-1.7029,0,0,0,0,0,0,-1.6853,-1.6859,-1.6901,-1.6879,-1.6884,-1.6878,-1.6892,-1.689,-1.6897,-1.6894,-1.6893,-1.6887,-1.6893,-1.6897,-1.6931,-1.6957,-1.6905,-1.6907,-1.7022,-1.7025,-1.7028,-1.7073,0,0,0,0,0,0,-1.6852,-1.6859,-1.6877,-1.688,-1.6885,-1.6933,-1.6894,-1.6891,-1.6901,-1.6897,-1.6902,-1.6901,-1.6892,-1.6928,-1.6933,-1.696,-1.6909,-1.702,-1.7024,-1.7027,-1.7069,-1.7077,-1.7084,0,0,0,0,0,-1.685,-1.689,-1.6878,-1.6884,-1.6909,-1.6934,-1.6937,-1.6925,-1.6904,-1.6922,-1.692,-1.6901,-1.6954,-1.6932,-1.6938,-1.6965,-1.7018,-1.7023,-1.7027,-1.7066,-1.7076,-1.7084,0,0,0,0,0,0,-1.689,-1.689,-1.6877,-1.6919,-1.6927,-1.6928,-1.6951,-1.6936,-1.695,-1.6945,-1.693,-1.6931,-1.6969,-1.697,-1.6946,-1.7013,-1.6982,-1.6988,-1.701,-1.7019,-1.7027,-1.7025,-1.6911,0,0,0,0,0,-1.6904,-1.6925,-1.6923,-1.696,-1.6965,-1.6957,-1.6968,-1.6958,-1.6966,-1.6969,-1.6969,-1.6977,-1.6995,-1.7007,-1.7024,-1.707,-1.707,-1.7091,-1.7099,-1.7105,-1.711,-1.7134,-1.7143,-1.7043,-1.7043,-1.7043,0,0,-1.6933,-1.6935,-1.6949,-1.6969,-1.6973,-1.6995,-1.696,-1.6985,-1.7001,-1.6972,-1.7005,-1.7006,-1.7013,-1.7053,-1.7071,-1.7056,-1.7137,-1.711,-1.7115,-1.7117,-1.7139,-1.7148,-1.7157,-1.7046,-1.7045,-1.7045,0,0,-1.6996,-1.7,-1.7031,-1.7037,-1.7045,-1.7039,-1.7047,-1.705,-1.7049,-1.7082,-1.7061,-1.708,-1.7111,-1.7118,-1.7125,-1.7191,-1.7174,-1.7197,-1.7235,-1.7259,-1.7266,-1.7273,-1.7297,-1.7305,-1.7202,-1.7202,-1.7202,0,-1.7031,-1.7063,-1.7049,-1.7075,-1.7084,-1.706,-1.7091,-1.7097,-1.711,-1.7117,-1.71,-1.7139,-1.7142,-1.7183,-1.7199,-1.7206,-1.7214,-1.7196,-1.7266,-1.7273,-1.7279,-1.7301,-1.731,-1.7205,-1.7204,-1.7204,-1.7204,0,-1.7105,-1.7127,-1.7152,-1.7165,-1.7176,-1.7205,-1.7196,-1.721,-1.7199,-1.7195,-1.7229,-1.7232,-1.7249,-1.7258,-1.7248,-1.7298,-1.7288,-1.7269,-1.7238,-1.7292,-1.7312,-1.7321,-1.7208,-1.7208,-1.7207,-1.7206,0,0,-1.7194,-1.7199,-1.7208,-1.7214,-1.722,-1.7237,-1.7265,-1.7281,-1.7293,-1.7303,-1.7325,-1.7353,-1.7335,-1.7344,-1.7334,-1.7355,-1.7406,-1.7333,-1.7333,-1.7346,-1.7461,-1.7475,-1.7485,-1.7395,-1.7397,-1.7398,-1.746,0,-1.7256,-1.7303,-1.7292,-1.7338,-1.7359,-1.7336,-1.736,-1.7366,-1.7364,-1.7381,-1.7378,-1.7398,-1.7373,-1.7378,-1.7398,-1.7396,-1.7429,-1.7391,-1.7416,-1.7417,-1.7414,-1.7496,-1.7511,-1.757,-1.7468,-1.747,-1.7471,0,-1.7335,-1.7348,-1.7396,-1.7399,-1.7407,-1.7429,-1.7443,-1.746,-1.7467,-1.7464,-1.7473,-1.7459,-1.7487,-1.7456,-1.7493,-1.7467,-1.7477,-1.7477,-1.7479,-1.7481,-1.7447,-1.7499,-1.7588,-1.7597,-1.7483,-1.7482,-1.7481,0,-1.7394,-1.7424,-1.7456,-1.7462,-1.7466,-1.7482,-1.7485,-1.749,-1.7501,-1.7513,-1.752,-1.7535,-1.7544,-1.7556,-1.7547,-1.7525,-1.7585,-1.7554,-1.7583,-1.7584,-1.7597,-1.7596,-1.7688,-1.7603,-1.7603,-1.7603,-1.7603,0,-1.7465,-1.7495,-1.7483,-1.7503,-1.7537,-1.7524,-1.7557,-1.7557,-1.7562,-1.7582,-1.7563,-1.7582,-1.7569,-1.7587,-1.758,-1.7611,-1.7615,-1.7613,-1.7611,-1.7615,-1.7615,-1.7621,-1.7616,-1.7605,-1.7605,-1.7604,-1.7604,0,-1.7537,-1.753,-1.7564,-1.7565,-1.7567,-1.7591,-1.7593,-1.7611,-1.7608,-1.7633,-1.7638,-1.7632,-1.7652,-1.7644,-1.7666,-1.7661,-1.7702,-1.7694,-1.7699,-1.7697,-1.7727,-1.7724,-1.7826,-1.7838,-1.7746,-1.7747,-1.7747,0,-1.7582,-1.7605,-1.7609,-1.7621,-1.7625,-1.7644,-1.7655,-1.7643,-1.7655,-1.7664,-1.7682,-1.77,-1.7714,-1.7748,-1.7745,-1.7762,-1.7754,-1.7789,-1.7756,-1.776,-1.7755,-1.7753,-1.7755,-1.7795,-1.7796,-1.7797,-1.7798,0,-1.7663,-1.7658,-1.7674,-1.7689,-1.7702,-1.7713,-1.7723,-1.7734,-1.7722,-1.7736,-1.7757,-1.7768,-1.7789,-1.7808,-1.7822,-1.7825,-1.781,-1.7808,-1.7815,-1.782,-1.7822,-1.7821,-1.7716,-1.7805,-1.7805,-1.7804,-1.7804,-1.7803,-1.7722,-1.7741,-1.7747,-1.7766,-1.7772,-1.7781,-1.7799,-1.7797,-1.7814,-1.7831,-1.7823,-1.7846,-1.7853,-1.7871,-1.7876,-1.7894,-1.788,-1.7892,-1.7894,-1.7897,-1.7901,-1.7819,-1.7897,-1.7896,-1.7896,-1.7896,-1.7896,0,-1.7802,-1.7804,-1.7821,-1.7835,-1.785,-1.7834,-1.7844,-1.7857,-1.7878,-1.7886,-1.79,-1.7923,-1.7941,-1.7941,-1.7957,-1.7972,-1.7965,-1.7977,-1.7975,-1.7976,-1.7912,-1.7904,-1.7982,-1.7982,-1.7982,-1.7982,-1.7982,-1.7982,-1.7845,-1.7876,-1.7873,-1.7907,-1.7909,-1.7932,-1.7939,-1.7948,-1.7954,-1.7981,-1.7996,-1.7995,-1.7999,-1.8016,-1.8032,-1.8031,-1.8038,-1.8052,-1.8049,-1.7989,-1.7981,-1.7973,-1.7965,-1.8054,-1.8054,-1.8112,-1.8112,-1.8113]},{"header":{"parameterUnit":"m.s-1","parameterCategory":1,"la1":30.2991,"la2":30.254,"lo1":-89.0895,"lo2":-89.0444,"dy":0.0017,"dx":0.0017,"nx":28,"ny":28,"refTime":"2025-11-05T09:00:00:Z","depth":0,"parameterNumber":3,"parameterNumberName":"V-component_of_WINDS"},"data":[0,0,0,0,0,0,0,0,0,0,0,0,0,0,0,0,0,0,0,0,0,0,0,0,0,0,0,0,0,0,0,0,0,0,0,0,0,0,0,0,0,0,0,0,0,0,0,0,0,0,0,0,0,0,0,0,0,0,0.1771,0.1771,0,0.1733,0.1733,0.1733,0.1794,0.1796,0.1798,0.18,0.1755,0.1752,0.1749,0,0,0,0,0,0,0,0,0,0,0,0,0,0.189,0.1887,0.1771,0.1771,0.177,0.1734,0.1733,0.1733,0.1794,0.1796,0.1799,0.1801,0.1756,0.1753,0.1749,0,0,0,0,0,0,0,0,0,0,0,0,0,0.1844,0.1887,0.1771,0.1796,0.1798,0.1734,0.1733,0.1732,0.1793,0.1796,0.18,0.1803,0.1757,0.1753,0.1748,0.1655,0,0,0.1734,0.1732,0,0,0,0,0,0,0,0,0.1846,0.1839,0.1793,0.1795,0.1797,0.1772,0.1759,0.1706,0.1792,0.1795,0.18,0.1804,0.1758,0.1753,0.1739,0.1653,0.1651,0.1733,0.173,0.1728,0.1727,0,0,0,0,0,0,0,0.1849,0.1841,0.1756,0.1792,0.1794,0.1808,0.1805,0.1749,0.1759,0.1795,0.1799,0.1794,0.1759,0.1743,0.1738,0.165,0.1733,0.1729,0.1726,0.1724,0.1485,0.1482,0,0,0,0,0,0,0.185,0.1843,0.1757,0.1755,0.183,0.1803,0.18,0.1776,0.176,0.176,0.1792,0.1797,0.175,0.1744,0.1737,0.1626,0.1728,0.1724,0.1721,0.1489,0.1485,0.1481,0,0,0,0,0,0,0.1853,0.1842,0.1759,0.18,0.1791,0.1798,0.1771,0.1774,0.1758,0.1757,0.1759,0.1774,0.1752,0.1744,0.1675,0.1626,0.1722,0.1717,0.1493,0.1488,0.1483,0.1404,0,0,0,0,0,0,0.1856,0.1843,0.1809,0.1799,0.1788,0.1699,0.1768,0.1771,0.1751,0.1758,0.1741,0.1741,0.1754,0.1682,0.1671,0.1621,0.1714,0.1497,0.1491,0.1484,0.1411,0.1397,0.1385,0,0,0,0,0,0.186,0.1787,0.1807,0.1796,0.1746,0.1696,0.169,0.1708,0.1747,0.1711,0.1711,0.1742,0.1633,0.1675,0.1662,0.161,0.1501,0.1493,0.1485,0.1417,0.14,0.1385,0,0,0,0,0,0,0.1787,0.1786,0.1808,0.173,0.1713,0.1707,0.1663,0.1689,0.1659,0.1667,0.1689,0.1684,0.1611,0.1604,0.165,0.1519,0.1573,0.1562,0.1526,0.1509,0.1497,0.1499,0.171,0,0,0,0,0,0.1763,0.1724,0.1724,0.1655,0.1646,0.1656,0.1635,0.165,0.1633,0.1625,0.162,0.16,0.1561,0.1535,0.15,0.1411,0.1408,0.1369,0.1356,0.1345,0.1335,0.1287,0.127,0.1455,0.1455,0.1455,0,0,0.171,0.1705,0.1679,0.164,0.1629,0.1587,0.1649,0.1602,0.157,0.1617,0.1553,0.1548,0.1527,0.1448,0.1413,0.144,0.1284,0.1335,0.1327,0.1322,0.1277,0.126,0.1244,0.145,0.1451,0.1452,0,0,0.1593,0.1586,0.1528,0.1516,0.1499,0.1506,0.1492,0.1482,0.1482,0.1418,0.1453,0.1414,0.1348,0.1331,0.1314,0.1192,0.1219,0.118,0.111,0.1063,0.1048,0.1035,0.0991,0.0974,0.117,0.117,0.117,0,0.153,0.147,0.1494,0.1444,0.1426,0.147,0.141,0.1396,0.1367,0.1353,0.1384,0.1302,0.1291,0.1209,0.1179,0.1164,0.1147,0.1181,0.1049,0.1036,0.1024,0.0982,0.0965,0.1165,0.1166,0.1166,0.1167,0,0.1392,0.1349,0.1304,0.1278,0.1254,0.1199,0.1214,0.1187,0.1205,0.1208,0.1142,0.1131,0.1094,0.1076,0.1092,0.0995,0.1012,0.1046,0.11,0.1002,0.0962,0.0946,0.1159,0.116,0.1162,0.1163,0,0,0.1226,0.1216,0.1198,0.1187,0.1172,0.1139,0.1086,0.1052,0.1028,0.1006,0.0961,0.0905,0.0936,0.0916,0.0931,0.089,0.0793,0.0929,0.0928,0.0903,0.0684,0.0658,0.0639,0.0812,0.0809,0.0806,0.0686,0,0.1109,0.102,0.1041,0.0951,0.0912,0.0953,0.0907,0.0892,0.0894,0.0859,0.086,0.0819,0.0864,0.0853,0.0814,0.0813,0.0749,0.0822,0.0767,0.0765,0.077,0.0619,0.0591,0.0478,0.0671,0.0668,0.0666,0,0.096,0.0936,0.0844,0.0836,0.082,0.0778,0.0749,0.0716,0.0699,0.0703,0.0682,0.0705,0.065,0.0707,0.0631,0.068,0.0659,0.0655,0.0651,0.0646,0.0708,0.0607,0.0442,0.0425,0.0642,0.0644,0.0646,0,0.0848,0.0792,0.0729,0.0718,0.0708,0.0677,0.0671,0.0658,0.0636,0.061,0.0595,0.0562,0.0543,0.0516,0.0529,0.057,0.045,0.0508,0.045,0.045,0.0422,0.0423,0.025,0.0411,0.0411,0.0411,0.0412,0,0.0714,0.0655,0.0679,0.064,0.0575,0.0599,0.0533,0.0532,0.052,0.048,0.0514,0.0475,0.0495,0.0458,0.0467,0.0402,0.0394,0.0394,0.0397,0.039,0.039,0.0375,0.0383,0.0407,0.0408,0.0409,0.041,0,0.0576,0.059,0.0524,0.052,0.0518,0.047,0.0466,0.0429,0.0434,0.0384,0.0373,0.038,0.0338,0.0349,0.0302,0.0308,0.0226,0.0239,0.0232,0.0235,0.0176,0.0181,-0.0015,-0.004,0.0139,0.0137,0.0136,0,0.0489,0.0446,0.0438,0.0415,0.0407,0.0369,0.0348,0.0369,0.0345,0.0323,0.0288,0.025,0.022,0.015,0.015,0.0114,0.0126,0.006,0.012,0.0115,0.0123,0.0125,0.012,0.0047,0.0045,0.0043,0.0042,0,0.0333,0.0342,0.0312,0.0283,0.0257,0.0235,0.0216,0.0194,0.0214,0.0185,0.0144,0.0121,0.0075,0.0035,0.0002,-0.0006,0.002,0.0024,0.0008,-0.0,-0.0003,-0.0004,0.0198,0.0027,0.0029,0.003,0.0031,0.0031,0.0217,0.018,0.0169,0.0134,0.0122,0.0103,0.0069,0.0071,0.0037,0.0002,0.0017,-0.0032,-0.0048,-0.0088,-0.0101,-0.0139,-0.0115,-0.0137,-0.0143,-0.0149,-0.0157,0.0005,-0.0145,-0.0145,-0.0144,-0.0144,-0.0144,0,0.0062,0.0057,0.0024,-0.0002,-0.0031,-0.0,-0.002,-0.0046,-0.0088,-0.0104,-0.0134,-0.0182,-0.022,-0.0222,-0.0259,-0.0289,-0.0278,-0.03,-0.0298,-0.0301,-0.0176,-0.016,-0.0308,-0.0308,-0.0308,-0.0308,-0.0308,-0.0308,-0.0023,-0.0084,-0.0076,-0.0143,-0.0147,-0.0192,-0.0207,-0.0224,-0.0237,-0.0291,-0.0322,-0.0322,-0.0333,-0.037,-0.0404,-0.0404,-0.0419,-0.0446,-0.0442,-0.0326,-0.0309,-0.0294,-0.0278,-0.0449,-0.0449,-0.0563,-0.0564,-0.0565]}]]